Lid_Strength_Index
10 10 10 10 10 10 10 10 9 10 10 11 11 11 12 12 12 12 12 13 13 13 13 13 12 11 10 9 9 10 11 13 16 16 15 15 15 15 15 14 12 12 12
12 11 11 11 10 11 11 11 10 10 10 10 10 10 10 10 10 11 11 11 12 13 13 13 13 12 12 11 10 10 10 11 14 16 16 16 16 16 16 16 15 14 13
13 12 12 12 11 11 12 11 11 11 11 11 11 11 11 11 11 11 11 11 11 12 12 12 12 11 12 11 11 11 11 12 13 14 16 15 16 16 17 16 16 16 15
14 14 14 13 12 12 12 12 12 12 12 11 11 11 11 11 11 12 12 12 11 11 11 12 12 11 10 10 11 11 11 12 13 14 15 16 16 16 16 17 17 16 16
15 15 15 14 13 13 13 13 13 12 12 11 11 11 11 11 11 12 12 12 12 12 12 12 12 13 11 10 10 10 10 12 13 14 16 16 16 16 16 16 18 18 18
15 15 14 14 13 13 13 13 13 13 13 12 12 11 11 11 11 11 12 13 13 13 13 11 11 12 12 11 10 9 9 11 12 13 13 15 16 15 14 16 17 17 18
15 15 15 14 14 14 14 14 14 14 13 13 13 12 12 11 10 11 12 13 13 12 12 11 10 11 11 12 11 11 11 11 11 11 12 13 13 13 14 15 15 15 17
16 16 15 15 15 14 14 14 14 13 13 13 13 13 13 12 11 10 11 11 11 11 10 10 10 9 10 11 12 13 12 11 12 12 12 13 12 12 12 13 14 17 17
16 16 16 15 15 15 15 14 14 13 13 13 13 13 13 13 10 7 8 8 9 9 9 8 8 8 9 10 12 14 15 15 12 11 10 10 11 11 13 13 15 16 18
16 16 16 15 16 16 15 15 13 13 13 12 13 13 12 12 8 6 6 6 8 9 8 8 8 7 7 8 11 12 14 15 15 15 15 15 15 14 14 14 14 16 18
16 16 17 17 16 16 15 14 13 13 13 13 13 12 12 11 8 6 5 7 7 8 8 9 9 7 7 8 9 12 13 14 15 16 16 17 17 17 17 17 17 16 17
17 18 19 18 17 16 17 15 14 14 14 14 13 13 11 9 8 7 6 6 7 8 9 9 9 9 8 9 10 11 13 15 15 16 17 17 18 18 18 18 18 17 17
19 21 21 20 18 17 17 16 15 13 14 14 14 14 12 11 9 8 7 7 7 9 9 9 10 10 11 13 12 12 15 15 16 17 17 18 18 19 18 18 20 21 21
20 21 21 21 20 19 18 17 15 14 14 14 13 13 13 12 9 8 8 8 8 8 10 11 11 12 13 15 16 16 16 16 17 17 18 19 19 19 20 20 18 19 17
20 21 21 21 22 21 20 18 16 14 12 13 13 12 13 13 10 9 9 9 8 8 11 13 15 15 16 17 17 19 19 19 19 20 19 19 19 18 19 22 22 19 18
21 21 22 22 22 22 21 20 14 13 13 12 11 11 11 10 10 9 9 9 9 8 12 14 16 17 18 19 19 19 20 21 22 20 20 20 20 19 19 20 21 21 19
20 22 22 22 23 23 23 22 22 19 14 13 13 13 12 12 12 11 10 11 11 14 16 17 18 18 19 20 20 20 20 22 25 21 21 22 22 22 19 20 21 21 21
23 24 23 24 25 25 25 24 25 24 23 22 18 15 13 13 13 13 13 15 20 19 21 20 19 18 20 20 20 20 21 21 22 22 23 24 24 21 20 21 22 21 21
23 25 25 26 27 27 27 26 26 28 28 27 24 19 22 16 16 16 17 22 22 21 21 21 20 20 20 21 22 22 23 23 24 24 25 25 26 23 25 25 24 28 26
23 25 25 26 28 28 29 27 28 29 29 29 26 25 25 24 26 26 27 26 24 23 22 21 22 22 22 22 22 23 21 22 23 23 25 26 27 26 24 25 25 22 23
24 25 27 28 28 28 29 28 30 31 30 31 29 26 19 27 28 29 28 27 26 25 24 23 22 22 22 22 22 21 22 23 24 25 25 26 27 24 28 27 28 28 27
23 26 27 26 30 28 30 30 30 31 31 30 30 28 20 30 30 29 28 28 27 26 25 24 22 23 23 23 23 22 22 23 24 25 25 27 27 27 27 27 28 28 28
24 27 28 30 30 31 31 33 31 30 31 32 31 30 30 30 30 29 29 29 29 28 26 25 24 24 24 24 24 24 23 23 24 25 25 26 26 26 27 26 27 26 26
23 25 25 27 29 29 28 30 31 30 30 31 31 31 30 31 30 31 31 30 30 29 29 27 27 26 26 25 24 25 25 25 25 25 25 25 25 27 27 28 28 29 28
24 24 24 26 26 28 29 31 31 31 31 30 30 31 32 31 31 31 31 31 32 30 29 30 29 28 28 29 28 27 25 25 27 26 26 24 25 26 27 27 27 28 29
24 24 24 26 26 28 28 29 29 30 30 30 30 31 31 30 30 31 32 32 31 30 29 30 29 29 28 27 27 24 20 21 25 26 26 24 25 26 26 26 26 26 27